Flag for Netherlands Weather past 2 weeks in Rotterdam, Netherlands

45 °F


Feels Like: 45 °F
Forecast: 58 / 66 °F
Wind: 1 mph from East

Location: Rotterdam Zestienhoven Airport

Current Time: Oct 5, 2015 at 2:31:27 AM

Latest Report: Oct 5, 2015 at 1:55 AM

Visibility: 0 mi

Pressure: 29.92 "Hg

Humidity: 100%

Dew point: 45 °F

Location of RotterdamLocation

Historic Weather in Rotterdam — Graph


Rotterdam temperature yesterday

Maximum temperature yesterday: 63 °F (at 2:25 PM)
Minimum temperature yesterday: 43 °F (at 3:55 AM)
Average temperature yesterday: 53 °F

Past Weeks' High & Low Weather Summary

High66 °F (Oct 3, 3:25 PM)100% (Sep 20, 3:25 AM)30.66 "Hg (Sep 20, 3:25 AM)
Low37 °F (Oct 3, 4:55 AM)52% (Oct 2, 2:55 PM)29.47 "Hg (Sep 22, 2:25 PM)
Average54 °F86%30.19 "Hg
* Reported Sep 20 12:25 AM — Oct 5 12:55 AM, Rotterdam, Weather by CustomWeather, © 2015

Note: Actual official high and low records may vary slightly from our data, if they occured in-between our weather recording intervals... More about our weather records


Rotterdam weather history for previous 24 hours

Time TempWeatherWind HumidityBarometerVisibility
12:55 AM
Mon, Oct 5
46 °FFog.2 mph100%29.95 "Hg1 mi
12:25 AM45 °FFog.2 mph100%29.95 "Hg1 mi
11:25 PM
Sun, Oct 4
48 °FFog.1 mph100%29.95 "Hg1 mi
10:55 PM48 °FFog.2 mph100%29.95 "Hg1 mi
10:25 PM48 °FFog.1 mph100%29.95 "Hg1 mi
9:55 PM48 °FFog.1 mph100%29.95 "Hg1 mi
9:25 PM50 °FFog.1 mph100%29.95 "Hg0 mi
8:55 PM52 °FFog.2 mph94%29.95 "Hg2 mi
8:25 PM52 °FFog.1 mph94%29.95 "Hg2 mi
7:55 PM54 °FFog.3 mph88%29.95 "Hg2 mi
7:25 PM54 °FLight rain. Clear.3 mph88%29.95 "Hg3 mi
6:55 PM59 °FScattered clouds.2 mph72%29.95 "Hg4 mi
6:25 PM57 °FCool.5 mph82%29.95 "Hg5 mi
5:55 PM59 °FCool.7 mph77%29.95 "Hg6 mi
5:25 PM61 °FClear.8 mph68%29.95 "HgN/A
4:55 PM61 °FPassing clouds.9 mph68%29.95 "HgN/A
4:25 PM61 °FCool.9 mph68%29.95 "Hg6 mi
3:55 PM61 °FPartly sunny.8 mph68%29.95 "HgN/A
3:25 PM63 °FBroken clouds.9 mph68%29.98 "HgN/A
2:55 PM63 °FScattered clouds.12 mph68%29.98 "HgN/A
2:25 PM63 °FScattered clouds.12 mph68%29.98 "Hg6 mi
1:55 PM61 °FScattered clouds.9 mph72%29.98 "HgN/A
1:25 PM61 °FPassing clouds.9 mph72%29.98 "HgN/A
12:55 PM61 °FPartly sunny.7 mph77%29.98 "Hg5 mi
12:25 PM57 °FPartly sunny.6 mph88%29.98 "Hg4 mi
11:55 AM57 °FFog.3 mph94%29.98 "Hg2 mi
11:25 AM55 °FFog.5 mph100%29.98 "Hg1 mi
10:55 AM54 °FFog.3 mph100%29.98 "Hg1 mi
10:25 AM52 °FFog.3 mph100%30.01 "Hg0 mi
9:55 AM52 °FFog.6 mph100%29.98 "Hg0 mi
9:25 AM52 °FFog.6 mph100%29.98 "Hg0 mi
8:55 AM50 °FFog.5 mph100%29.98 "Hg0 mi
8:25 AM50 °FDrizzle. Dense fog.3 mph100%29.98 "Hg0 mi
7:55 AM50 °FDrizzle. Dense fog.6 mph100%29.98 "Hg0 mi
7:25 AM50 °FDrizzle. Dense fog.2 mph100%29.98 "Hg0 mi
6:55 AM50 °FLight rain. Dense fog.2 mph100%29.98 "Hg0 mi
6:25 AM48 °FDrizzle. Dense fog.1 mph100%29.95 "Hg0 mi
5:55 AM46 °FLight rain. Dense fog.1 mph100%29.95 "Hg0 mi
5:25 AM45 °FLight rain. Dense fog.2 mph100%29.95 "Hg0 mi
4:55 AM43 °FDrizzle. Dense fog.1 mph100%29.95 "Hg0 mi
4:25 AM43 °FDrizzle. Dense fog.2 mph100%29.95 "Hg0 mi
3:55 AM43 °FLight rain. Low clouds.2 mph100%29.95 "Hg0 mi
3:25 AM45 °FFog.1 mph100%29.95 "Hg0 mi
2:55 AM48 °FFog.1 mph100%29.95 "Hg1 mi
2:25 AM48 °FFog.2 mph100%29.95 "Hg1 mi
Weather by CustomWeather, © 2015

See weather overviewHow to use our weather pages